Lid_Strength_Index
3 3 3 3 2 3 3 3 2 2 2 2 2 2 1 2 2 6 8 6 5 3 4 8 9 10 10 12 11 11 16 18 16 16 16 13 14 12 11 13 11 6 10 8 9
4 3 3 3 3 3 2 2 2 2 2 2 2 2 2 2 6 8 4 3 4 4 8 10 11 11 14 14 13 15 18 17 15 15 16 14 14 14 14 13 12 11 11 11 11
3 3 3 3 3 2 2 2 2 2 2 2 2 2 2 3 9 9 4 4 4 5 7 9 10 11 15 14 14 15 17 14 14 13 12 13 13 13 14 15 12 12 12 12 12
3 3 3 3 3 2 2 2 2 2 3 3 3 3 3 6 17 8 5 5 4 7 9 10 12 14 16 17 13 17 14 14 13 12 13 14 13 14 13 13 10 10 10 11 12
3 3 3 3 3 3 2 2 3 3 3 3 3 3 6 11 12 7 5 6 7 8 10 11 13 14 16 15 14 16 15 13 12 12 12 11 13 13 13 11 9 9 8 10 10
4 4 3 3 3 3 3 3 4 4 4 4 3 4 9 14 7 7 7 7 8 9 10 10 12 11 14 14 15 13 12 11 10 10 9 10 10 10 10 9 9 8 9 9 10
4 4 3 4 4 4 4 4 4 4 4 4 4 5 10 12 8 8 8 9 9 9 11 10 10 12 12 13 9 9 12 11 10 10 11 9 11 10 7 7 9 8 8 8 9
4 3 3 4 4 4 4 4 4 4 4 5 5 8 13 7 9 9 9 10 8 8 9 8 8 10 10 9 10 12 13 16 11 10 9 10 14 9 7 7 8 7 7 8 8
3 3 4 4 4 4 4 4 4 4 5 5 8 10 14 6 11 9 10 10 9 9 8 7 8 10 10 13 17 16 20 17 14 10 11 11 13 10 8 8 9 8 7 7 8
4 4 4 4 4 4 4 5 5 7 7 7 10 15 13 14 10 9 10 9 10 10 10 9 10 14 13 16 21 20 18 16 16 13 12 13 13 10 9 8 8 7 7 7 8
4 4 4 4 4 4 7 11 14 15 13 16 15 15 13 11 9 11 9 9 10 11 16 11 14 19 15 14 13 14 15 16 14 11 12 13 13 11 9 9 9 8 7 7 6
4 4 4 4 4 6 10 13 13 13 18 12 13 13 12 11 13 12 9 12 15 18 12 16 17 13 12 12 12 13 15 15 14 12 12 13 14 11 10 9 8 8 8 7 6
4 4 4 4 5 9 11 11 10 11 17 15 14 14 13 12 14 13 10 11 15 14 16 14 14 11 12 13 15 16 16 16 16 13 12 13 14 12 10 10 9 8 9 8 7
4 4 4 5 8 10 12 9 10 11 24 20 17 15 13 13 15 10 8 10 12 17 13 14 12 12 14 15 15 18 13 13 14 16 19 13 20 15 12 13 12 11 12 11 10
4 3 4 6 10 12 10 10 11 13 29 18 17 12 13 14 13 12 8 8 12 16 14 16 14 14 16 14 13 15 12 14 14 16 16 15 17 18 14 15 14 13 11 10 10
3 4 6 8 10 11 10 10 12 22 29 24 17 17 18 15 13 11 10 8 9 12 13 15 11 12 13 11 11 12 16 16 17 16 22 21 19 19 17 16 14 13 12 11 10
4 6 8 9 12 10 11 14 22 27 22 24 21 17 17 17 15 14 13 12 16 20 24 18 17 13 10 14 13 15 19 27 27 27 25 20 17 19 16 14 14 14 12 10 9
5 7 9 10 11 11 13 19 28 29 29 18 18 17 19 16 16 15 14 16 13 15 18 25 22 19 12 13 15 18 18 20 26 26 22 19 21 17 14 13 13 13 12 10 8
6 9 10 12 12 11 17 26 26 25 19 19 18 24 25 17 18 19 17 16 14 17 22 21 22 14 13 11 14 18 20 15 19 23 23 23 19 14 14 14 13 13 13 12 9
9 10 12 11 12 14 20 22 25 18 17 18 24 21 28 25 20 22 18 14 13 14 15 18 21 18 16 11 13 18 16 22 21 23 28 23 22 22 19 17 14 14 14 12 10
9 13 11 11 11 16 22 25 26 18 17 18 19 24 20 24 19 22 19 14 13 13 13 17 18 18 15 16 18 16 19 19 17 19 23 24 23 17 18 16 15 14 13 12 11
10 14 11 12 17 18 22 24 18 18 16 17 16 17 21 20 19 22 19 16 13 15 18 14 15 19 20 13 12 16 17 17 20 21 19 20 21 15 16 15 14 14 12 12 12
14 14 11 11 20 20 22 22 19 18 18 17 18 15 15 21 22 16 16 12 11 14 17 14 21 23 19 16 14 16 15 15 16 16 20 22 21 15 16 16 15 14 13 13 12
13 17 15 15 15 18 23 21 22 17 17 16 15 15 16 20 16 20 14 12 11 12 10 12 15 16 21 18 16 18 16 16 17 22 20 20 20 18 18 17 16 15 13 13 13
12 15 14 20 19 17 17 19 21 23 17 15 17 16 17 22 19 19 14 13 12 12 13 17 25 18 18 17 16 15 17 17 18 17 20 19 19 18 17 17 16 15 14 14 14
13 15 15 16 15 16 16 19 20 20 18 17 18 16 15 21 16 17 14 14 15 14 15 15 25 21 23 15 15 16 15 17 18 17 17 17 19 15 15 15 17 17 16 16 16
11 12 13 14 16 17 18 18 18 18 16 14 15 15 16 15 14 13 12 12 13 15 16 18 24 27 25 19 20 22 18 18 18 17 17 19 16 14 16 16 17 17 16 17 16